Weather History for Erzurum, Turkey

Change the Weather History Date:

Saturday, February 16, 2013

  Actual Average Record
Temperature  
Mean Temperature 26 °F -  
Max Temperature 35 °F 33 °F 41 °F (1999)
Min Temperature 17 °F 18 °F -25 °F (2008)
Degree Days  
Heating Degree Days 39    
Moisture  
Dew Point 24 °F    
Average Humidity 94    
Maximum Humidity 100    
Minimum Humidity 67    
Precipitation  
Precipitation 0.00 in 0.04 in - ()
Sea Level Pressure  
Sea Level Pressure 29.85 in    
Wind  
Wind Speed 3 mph ()    
Max Wind Speed 9 mph    
Max Gust Speed -    
Visibility 3.6 miles    
Events Fog , Snow    
Averages and records for this station are not official NWS values.
T = Trace of Precipitation, MM = Missing Value Source: Averaged Metar Reports

Daily Weather History Graph

Daily Weather History Graph

Search for Another Location

Airport:

Trip Planner

Search our weather history database for the weather conditions in past years. The results will help you decide how hot, cold, wet, or windy it might be!

Date:

Astronomy

Feb. 16, 2013 Rise Set
Actual Time 6:06 AM EET 4:52 PM EET
Civil Twilight 5:39 AM EET 5:20 PM EET
Nautical Twilight 5:07 AM EET 5:51 PM EET
Astronomical Twilight 4:36 AM EET 6:23 PM EET
Moon 9:06 AM EET (2/16) 11:28 PM EET (2/16)
Length of Visible Light 11h 40m
Length of Day
10h 45m
Waxing Crescent, 36% of the Moon is Illuminated
Feb 16
Waxing Crescent
Feb 17
First Quarter
Feb 25
Full
Mar 4
Last Quarter
Mar 11
New

Hourly Weather History & Observations

Time (EET) Temp. Windchill Dew Point Humidity Pressure Visibility Wind Dir Wind Speed Gust Speed Precip Events Conditions
12:20 AM 28.4 °F 22.2 °F 28.4 °F 100% 29.80 in 2.2 mi NNE 5.8 mph - N/A Snow Light Snow
12:50 AM 28.4 °F 23.3 °F 28.4 °F 100% 29.80 in 3.7 mi East 4.6 mph - N/A Snow Light Snow
1:20 AM 26.6 °F - 26.6 °F 100% 29.80 in 3.7 mi ESE 1.2 mph - N/A Snow Light Snow
1:50 AM 26.6 °F - 26.6 °F 100% 29.80 in 3.7 mi Calm Calm - N/A Snow Light Snow
2:00 AM 27 °F - 27 °F 99%  in 4 mi Calm Calm - - Snow Light Snow
2:20 AM 26.6 °F - 26.6 °F 100% 29.80 in 1.7 mi Variable 2.3 mph - N/A Snow Light Snow
2:50 AM 26.6 °F 21.2 °F 26.6 °F 100% 29.80 in 1.9 mi SSW 4.6 mph - N/A Snow Light Snow
3:20 AM 26.6 °F 20.0 °F 26.6 °F 100% 29.80 in 2.2 mi West 5.8 mph - N/A   Mostly Cloudy
3:50 AM 26.6 °F 21.2 °F 26.6 °F 100% 29.80 in 3.7 mi WNW 4.6 mph - N/A   Mostly Cloudy
4:20 AM 26.6 °F - 26.6 °F 100% 29.80 in - Calm Calm - N/A   Mostly Cloudy
4:50 AM 26.6 °F - 26.6 °F 100% 29.80 in 2.5 mi Calm Calm - N/A   Mostly Cloudy
5:20 AM 24.8 °F 20.5 °F 24.8 °F 100% 29.80 in 1.6 mi South 3.5 mph - N/A Snow Light Snow
5:50 AM 23.0 °F 15.8 °F 23.0 °F 100% 29.80 in 0.3 mi ENE 5.8 mph - N/A Fog Patches of Fog
6:20 AM 19.4 °F 11.5 °F 17.6 °F 93% 29.83 in 0.1 mi ENE 5.8 mph - N/A Fog Light Freezing Fog
6:50 AM 19.4 °F - 19.4 °F 100% 29.83 in 0.1 mi ENE 2.3 mph - N/A Fog Light Freezing Fog
7:20 AM 21.2 °F - 21.2 °F 100% 29.83 in 0.1 mi Variable 1.2 mph - N/A Fog Light Freezing Fog
7:50 AM 23.0 °F 18.4 °F 23.0 °F 100% 29.83 in - Variable 3.5 mph - N/A Fog Light Freezing Fog
8:00 AM 22 °F - 21 °F 95%  in 0 mi WNW 3.5 mph - - Fog Heavy Fog
8:20 AM 24.8 °F - 24.8 °F 100% 29.86 in 0.3 mi Variable 2.3 mph - N/A Fog Patches of Fog
8:50 AM 24.8 °F 17.9 °F 23.0 °F 93% 29.86 in 0.7 mi NW 5.8 mph - N/A   Scattered Clouds
9:20 AM 24.8 °F - 24.8 °F 100% 29.86 in 1.8 mi Variable 2.3 mph - N/A   Scattered Clouds
9:50 AM 28.4 °F - 28.4 °F 100% 29.86 in 3.7 mi Variable 2.3 mph - N/A   Scattered Clouds
10:20 AM 26.6 °F 22.6 °F 26.6 °F 100% 29.86 in 3.7 mi SSE 3.5 mph - N/A   Scattered Clouds
10:50 AM 30.2 °F 25.4 °F 28.4 °F 93% 29.86 in 3.7 mi SW 4.6 mph - N/A   Scattered Clouds
11:20 AM 32.0 °F 24.2 °F 28.4 °F 87% 29.86 in 5.0 mi WSW 9.2 mph - N/A   Scattered Clouds
11:50 AM 32.0 °F 24.8 °F 28.4 °F 87% 29.86 in 6.2 mi WSW 8.1 mph - N/A   Scattered Clouds
12:20 PM 32.0 °F 26.4 °F 28.4 °F 87% 29.86 in 6.2 mi WSW 5.8 mph - N/A   Scattered Clouds
12:50 PM 33.8 °F 28.6 °F 28.4 °F 81% 29.86 in 6.2 mi West 5.8 mph - N/A   Mostly Cloudy
1:20 PM 33.8 °F 28.6 °F 28.4 °F 81% 29.86 in 6.2 mi North 5.8 mph - N/A   Mostly Cloudy
1:50 PM 33.8 °F 26.4 °F 26.6 °F 75% 29.86 in 6.2 mi WNW 9.2 mph - N/A   Mostly Cloudy
2:00 PM 33 °F - 26 °F 67%  in 12 mi WNW 9.2 mph - -   Partly Cloudy
2:20 PM 33.8 °F 29.6 °F 26.6 °F 75% 29.86 in 6.2 mi WNW 4.6 mph - N/A   Mostly Cloudy
2:50 PM 32.0 °F 27.5 °F 26.6 °F 80% 29.86 in 6.2 mi West 4.6 mph - N/A   Mostly Cloudy
3:20 PM 32.0 °F 27.5 °F 26.6 °F 80% 29.86 in 6.2 mi West 4.6 mph - N/A   Mostly Cloudy
3:50 PM 32.0 °F - 28.4 °F 87% 29.86 in 6.2 mi Variable 1.2 mph - N/A   Mostly Cloudy
4:20 PM 32.0 °F - 26.6 °F 80% 29.86 in 6.2 mi West 2.3 mph - N/A   Mostly Cloudy
4:50 PM 28.4 °F 24.6 °F 24.8 °F 86% 29.86 in 6.2 mi ESE 3.5 mph - N/A   Mostly Cloudy
5:20 PM 26.6 °F - 24.8 °F 93% 29.86 in 6.2 mi Calm Calm - N/A   Mostly Cloudy
5:50 PM 26.6 °F - 24.8 °F 93% 29.89 in 6.2 mi South 2.3 mph - N/A   Mostly Cloudy
6:20 PM 21.2 °F 16.4 °F 21.2 °F 100% 29.89 in 6.2 mi ESE 3.5 mph - N/A   Mostly Cloudy
6:50 PM 23.0 °F - 21.2 °F 93% 29.89 in 1.2 mi Variable 2.3 mph - N/A   Scattered Clouds
7:20 PM 17.6 °F 12.3 °F 17.6 °F 100% 29.89 in 3.7 mi WNW 3.5 mph - N/A   Partly Cloudy
7:50 PM 17.6 °F - 15.8 °F 93% 29.89 in 2.5 mi Calm Calm - N/A   Unknown
8:00 PM 17 °F - 17 °F 99%  in 2 mi Calm Calm - - Fog Patches of Fog
8:20 PM 19.4 °F - 19.4 °F 100% 29.89 in 1.2 mi Variable 2.3 mph - N/A   Unknown
8:50 PM 19.4 °F 14.3 °F 19.4 °F 100% 29.89 in 1.2 mi West 3.5 mph - N/A   Unknown
9:20 PM 19.4 °F 12.8 °F 19.4 °F 100% 29.89 in 1.2 mi SW 4.6 mph - N/A   Unknown
9:50 PM 19.4 °F 14.3 °F 19.4 °F 100% 29.92 in 2.5 mi West 3.5 mph - N/A   Mist
10:20 PM 21.2 °F - 19.4 °F 93% 29.92 in 3.7 mi Variable 1.2 mph - N/A   Unknown
10:50 PM 21.2 °F - 19.4 °F 93% 29.92 in 3.7 mi Variable 2.3 mph - N/A   Unknown
11:20 PM 21.2 °F - 19.4 °F 93% 29.92 in 4.3 mi Variable 1.2 mph - N/A   Unknown
11:50 PM 21.2 °F - 19.4 °F 93% 29.92 in 4.3 mi Calm Calm - N/A   Unknown